INTELSAT 33E DEB, 64405

Orbit data source: Space-Track

INTELSAT 33E DEB, 64405 is space debris in GEO originally from a launch on Wed, 24 Aug 2016 UTC launched from the French Guiana (FRGUI). Debris objects in space refer to the collection of defunct objects orbiting the Earth. Examples of debris include non-operational satellites, rocket bodies, and fragments generated from explosions, collisions, or faulty payload assembly.

Not visible in the next 10 days
Identifier
64405, 2016-053AK
Orbit
GEO
Country
Flag of UnknownUnknown / ITSO
Related business
Manufacturer
Boeing/ES
Mission
Spacecraft
Bus & Motor
Unknown
Mass
Unknown
Launch date (UTC)
2016-08-24 (9 years ago)
Launch vehicle
Unknown
Launch site
French Guiana (FRGUI)
Object type
Payload
Rocket body
Debris
Shape & HBR
Unknown shape, 1.1 m
Radar Cross Section
RCS unknown

Expand to show TLE details & history
Last TLE update: 1 day ago

TLE from 1 day ago
0 INTELSAT 33E DEB
1 64405U 16053AK  25340.07057749 -.00000134  00000-0  00000-0 0  9996
2 64405   1.2311  99.0391 0064127  17.4183 341.7509  0.99507441  3982
Epoch: 2025-12-06T01:41Z
TLE epoch observation values (Epoch: 2025-12-06T01:41:37.895Z)
Latitude
-0°
Longitude
-2.54405°
Altitude
35,743.238 km
Speed
3.086 km/s
True Right ascension
06h 31m 52s
True Declination
0° 00' 00"
Sunlit
Object was in daylight at epoch
Visualization orbit readout
Latitude
Unknown
Longitude
Unknown
Altitude
Unknown
Speed
Unknown
Apparent Right ascension
Unknown
Apparent Declination
Unknown
Sunlit
N/A
Visualization observer readout
Local Sidereal Time
05:38:11
Azimuth
Unknown
Elevation
Unknown
Doppler factor
Unknown
Orbital elements
Apogee altitude
36,275.083 km
Perigee altitude
35,731.524 km
Semi-major axis
42,381.44 km
Eccentricity
0.00641
Inclination
1.2311°
RAAN
99.0391°
Arg. of periapsis
17.4183°
True anomaly
341.51902°
Mean anomaly
341.7509°
Eccentric anomaly
341.63514°
Mean motion
0.24876 °/min
Orbital period
1,447.18 mins
BSTAR
0
Loading maneuver chart data...
Computing Atmospheric mass density...
Loading historical data...
Loading historical data...
Loading historical data...
Loading historical data...
Loading historical data...
Loading historical data...
Loading historical data...

Documentation

Showing up to 5 results
|